Friday Harbor, WA

4:40 AM PDT on June 27, 2017 (GMT -0700)
Friday Harbor

Weather History for KFHR - March, 2014

Change the Weather History Date:

Sunday, March 16, 2014

  Actual Average Record
Temperature  
Mean Temperature 44 °F -  
Max Temperature 48 °F 48 °F 55 °F (2007)
Min Temperature 39 °F 37 °F 30 °F (2002)
Degree Days  
Heating Degree Days 20    
Moisture  
Dew Point 42 °F    
Average Humidity 89    
Maximum Humidity 97    
Minimum Humidity 80    
Precipitation  
Precipitation 0.01 in - - ()
Sea Level Pressure  
Sea Level Pressure 30.12 in    
Wind  
Wind Speed 6 mph (South)    
Max Wind Speed 12 mph    
Max Gust Speed 20 mph    
Visibility 9 miles    
Events Rain    
Averages and records for this station are not official NWS values.
T = Trace of Precipitation, MM = Missing Value Source: NWS Daily Summary

Daily Weather History Graph

Daily Weather History Graph

Search for Another Location

Airport or City:

Trip Planner

Search our weather history database for the weather conditions in past years. The results will help you decide how hot, cold, wet, or windy it might be!

Date:

Astronomy

Mar. 16, 2014 Rise Set
Actual Time 7:22 AM PDT 7:19 PM PDT
Civil Twilight 6:51 AM PDT 7:50 PM PDT
Nautical Twilight 6:15 AM PDT 8:27 PM PDT
Astronomical Twilight 5:37 AM PDT 9:04 PM PDT
Moon 7:46 PM PDT (3/16) 7:07 AM PDT (3/16)
Length of Visible Light 12h 58m
Length of Day
11h 56m
Full, 100% of the Moon is Illuminated
Mar 16
Full
Mar 23
Last Quarter
Mar 30
New
Apr 7
First Quarter
Apr 15
Full

Hourly Weather History & Observations

Time (PDT) Temp. Windchill Dew Point Humidity Pressure Visibility Wind Dir Wind Speed Gust Speed Precip Events Conditions
12:53 AM 48.0 °F - 42.1 °F 80% 30.19 in 10.0 mi Variable 4.6 mph - 0.00 in   Overcast
1:53 AM 46.9 °F - 43.0 °F 86% 30.21 in 10.0 mi Variable 4.6 mph - 0.00 in Rain Light Rain
2:53 AM 46.9 °F - 42.1 °F 83% 30.20 in 10.0 mi Variable 4.6 mph - 0.00 in Rain Light Rain
3:53 AM 46.0 °F 41.4 °F 42.1 °F 86% 30.18 in 10.0 mi WSW 9.2 mph 19.6 mph 0.00 in Rain Light Rain
4:53 AM 45.0 °F 40.6 °F 41.0 °F 86% 30.19 in 10.0 mi SW 8.1 mph - 0.00 in   Overcast
5:53 AM 45.0 °F 41.2 °F 41.0 °F 86% 30.19 in 10.0 mi SW 6.9 mph - N/A   Overcast
6:53 AM 45.0 °F 43.5 °F 41.0 °F 86% 30.18 in 10.0 mi Variable 3.5 mph - N/A   Overcast
7:53 AM 45.0 °F - 39.9 °F 82% 30.18 in 10.0 mi Calm Calm - N/A   Overcast
8:53 AM 45.0 °F 43.5 °F 41.0 °F 86% 30.19 in 10.0 mi South 3.5 mph - N/A   Overcast
9:21 AM 46.0 °F 43.9 °F 42.1 °F 86% 30.18 in 10.0 mi South 4.6 mph - N/A   Overcast
9:33 AM 46.0 °F 41.4 °F 43.0 °F 89% 30.18 in 10.0 mi SSE 9.2 mph - N/A   Overcast
9:53 AM 46.0 °F 43.1 °F 43.0 °F 89% 30.19 in 7.0 mi South 5.8 mph - 0.01 in Rain Light Rain
10:10 AM 45.0 °F 41.8 °F 43.0 °F 93% 30.19 in 10.0 mi Variable 5.8 mph - 0.00 in Rain Light Rain
10:19 AM 45.0 °F 40.6 °F 43.0 °F 93% 30.18 in 9.0 mi SSE 8.1 mph - 0.00 in Rain Light Rain
10:26 AM 45.0 °F 40.6 °F 44.1 °F 97% 30.19 in 7.0 mi South 8.1 mph - 0.00 in Rain Light Rain
10:39 AM 45.0 °F 41.8 °F 44.1 °F 97% 30.19 in 6.0 mi South 5.8 mph - 0.00 in Rain Light Rain
10:53 AM 46.0 °F 43.1 °F 44.1 °F 93% 30.19 in 6.0 mi South 5.8 mph - 0.00 in Rain Light Rain
11:01 AM 46.0 °F 43.1 °F 44.1 °F 93% 30.19 in 6.0 mi South 5.8 mph - 0.00 in Rain Light Rain
11:53 AM 46.0 °F 41.9 °F 44.1 °F 93% 30.17 in 10.0 mi South 8.1 mph - 0.00 in   Overcast
12:03 PM 46.0 °F 41.4 °F 44.1 °F 93% 30.17 in 10.0 mi SSE 9.2 mph - N/A   Overcast
12:13 PM 46.0 °F 42.5 °F 44.1 °F 93% 30.16 in 10.0 mi SSE 6.9 mph - N/A   Overcast
12:53 PM 46.0 °F 42.5 °F 44.1 °F 93% 30.15 in 10.0 mi South 6.9 mph - 0.00 in Rain Light Rain
1:04 PM 46.0 °F 43.9 °F 44.1 °F 93% 30.15 in 10.0 mi South 4.6 mph - 0.00 in Rain Light Rain
1:46 PM 46.0 °F 43.9 °F 45.0 °F 96% 30.14 in 10.0 mi South 4.6 mph - 0.00 in Rain Light Rain
1:53 PM 46.0 °F 42.5 °F 44.1 °F 93% 30.13 in 10.0 mi South 6.9 mph - 0.00 in Rain Light Rain
1:59 PM 46.0 °F 43.1 °F 44.1 °F 93% 30.12 in 10.0 mi SSW 5.8 mph - 0.00 in Rain Light Rain
2:20 PM 46.9 °F - 45.0 °F 93% 30.11 in 10.0 mi SSE 4.6 mph - 0.00 in   Overcast
2:27 PM 46.0 °F 43.1 °F 44.1 °F 93% 30.11 in 10.0 mi SSW 5.8 mph - 0.00 in   Overcast
2:36 PM 46.0 °F 42.5 °F 43.0 °F 89% 30.10 in 10.0 mi Variable 6.9 mph - 0.00 in   Overcast
2:40 PM 46.0 °F 41.9 °F 43.0 °F 89% 30.10 in 10.0 mi SSE 8.1 mph - 0.00 in   Overcast
2:53 PM 46.0 °F 44.8 °F 43.0 °F 89% 30.10 in 10.0 mi SSE 3.5 mph - 0.00 in   Overcast
3:53 PM 46.0 °F 44.8 °F 41.0 °F 83% 30.08 in 10.0 mi South 3.5 mph - N/A   Overcast
4:53 PM 46.0 °F - 41.0 °F 83% 30.05 in 10.0 mi Calm Calm - 0.00 in Rain Light Rain
5:53 PM 44.1 °F 41.5 °F 41.0 °F 89% 30.02 in 6.0 mi South 4.6 mph - 0.00 in Rain Light Rain
6:29 PM 44.1 °F 41.5 °F 42.1 °F 93% 30.01 in 10.0 mi SSW 4.6 mph - 0.00 in   Overcast
6:37 PM 44.1 °F 40.1 °F 42.1 °F 93% 30.01 in 10.0 mi SW 6.9 mph - 0.00 in Rain Light Rain
6:53 PM 44.1 °F 39.5 °F 41.0 °F 89% 30.01 in 10.0 mi WSW 8.1 mph - 0.00 in Rain Light Rain
7:53 PM 43.0 °F 38.8 °F 39.9 °F 89% 30.00 in 10.0 mi SW 6.9 mph - 0.00 in Rain Light Rain
8:53 PM 43.0 °F 36.8 °F 39.9 °F 89% 29.98 in 10.0 mi SW 11.5 mph - 0.00 in   Overcast
9:53 PM 43.0 °F 38.8 °F 39.9 °F 89% 29.98 in 10.0 mi WSW 6.9 mph - N/A   Clear
10:17 PM 42.1 °F 38.4 °F 39.0 °F 89% 30.00 in 8.0 mi Variable 5.8 mph - 0.00 in Rain Light Rain
10:36 PM 41.0 °F 37.1 °F 37.0 °F 86% 30.00 in 10.0 mi WNW 5.8 mph - 0.00 in   Overcast
10:53 PM 41.0 °F - 37.0 °F 86% 30.00 in 10.0 mi Calm Calm - 0.00 in   Overcast
11:53 PM 39.9 °F - 36.0 °F 86% 30.00 in 10.0 mi Calm Calm - N/A   Overcast